Tracking 31027 objects as of 19-Jul-2025
HD Live streaming from Space Station
objects crossing your sky now

STARLINK-1790

Track STARLINK-1790 now!
10-day predictions
STARLINK-1790 is classified as:


NORAD ID: 46691
Int'l Code: 2020-073X
Perigee: 553.4 km
Apogee: 555.3 km
Inclination: 53.1 °
Period: 95.6 minutes
Semi major axis: 6925 km
RCS: Unknown
Launch date: October 18, 2020
Source: United States (US)
Launch site: AIR FORCE EASTERN TEST RANGE (AFETR)
Your satellite tracking list
DEWASAT-2
Track 1 satellite(s)




NASA's NSSDC Master Catalog

Two Line Element Set (TLE):
1 46691U 20073X   25199.34601740  .00001038  00000-0  88539-4 0  9998
2 46691  53.0535 213.6277 0001333  85.4688 274.6453 15.06399661261800
Source of the keplerian elements: AFSPC